Location: Curupao
(10.4996°N, 66.6442°W)
Time: 10:05:53
(UTC+00:00)

Ariane H10-3 - Pass Details

Date: 23 May 2024
Orbit: 344 x 23437 km, 7.6° (Epoch: 17 June)

Event Time Altitude Azimuth Distance (km) Brightness Sun altitude
Exits shadow 08:51:20 37° 176° (S) 559 2.1 -17.2°
Drops below altitude 10° 08:53:30 10° 106° (ESE) 1,307 4.9 -16.7°
Sets 08:55:39 0° 96° (E) 2,430 6.7 -16.2°
